Location: Unspecified
(49.2170°N, 0.0000°E)
Time: 23:01:02
(UTC+00:00)

Courier 1B Rocket - Pass Details

Date: 25 January 2021
Orbit: 920 x 1202 km, 28.2° (Epoch: 08 March)

Event Time Altitude Azimuth Distance (km) Brightness Sun altitude
Rises 08:25:57 0° 232° (SW) 3,776 7.9 5.5°
Reaches altitude 10° 08:30:25 10° 205° (SSW) 2,893 7.7 6.0°
Maximum altitude 08:33:18 13° 181° (S) 2,730 8.0 6.4°
Drops below altitude 10° 08:36:15 10° 157° (SSE) 2,978 8.9 6.8°
Sets 08:41:01 0° 131° (SE) 3,999 10.9 7.4°
